Voltar ao catálogo

COSMOS 2251 DEB

AtivoLEO
NORAD 37320·DEBRIS·🇷🇺 Russia

Lançado Jun 16, 1993 de Plesetsk Cosmodrome

Loading…

Próximas Passagens (próximas 24 horas)

TLE

EnvelhecendoSource: Space-Track

Época: Sep 9, 2026, 02:38 UTC

1 37320U 93036BKL 26252.10996986  .00004732  00000-0  59332-3 0  9992
2 37320  74.0449  45.4209 0043504  62.8581 297.7022 14.81818417701487

Acompanhe COSMOS 2251 DEB em tempo real com AllMySat

Download on the App Store